User: anonymous   Login
Location: Berg
(47.2344°N, 9.5296°E)
Time: 03:59:48
(UTC+00:00)
Language:

BEESAT 3 - Orbit

View from above orbital plane
View from above orbital plane
View from above satellite
View from above satellite

Ground track
Ground track

The orbit data is extracted from the following two-line orbital elements,

1 39134U 13015E   21339.48701054  .00004501  00000-0  19270-3 0  9999
2 39134  64.8635 335.8115 0025386 309.0058  50.8810 15.23862656477261
Epoch (UTC): 05 December 2021 11:41:17
Eccentricity: 0.0025386
inclination: 64.8635°
perigee height: 477 km
apogee height: 511 km
right ascension of ascending node: 335.8115°
argument of perigee: 309.0058°
revolutions per day: 15.23862656
mean anomaly at epoch: 50.8810°
orbit number at epoch: 47726

The dashed part of the orbit path shows where the satellite is in the earth's shadow,  

DLR